Estación meteorológica de Els Cortals - St. Hilari Sacalm (La Selva, Guilleries)

Consulta los datos en tiempo real de la estación meteorológica de Els Cortals - St. Hilari Sacalm





Hora UTC 09:05
Temperatura 25.1 ºC
Humedad 50.0 %
Presión 1014.8 hPa
Pluja 0.0 mm
Velocidad viento 0.0 km/h
Dirección viento E

Datos diarios 2026-09-02



Hora UTC (invierno +1h; verano +2h)
Temperatura (ºC) Humedad (%) Presión (hPa) Velocidad viento (km/h) Precipitación (mm)
Hora UTC Aire Humedad Presión Vel. Dir. Vel. Max Dir. Intent. máx 5 min.
00:05 18.9 82.0 1013.6 0.0 WSW 0.0 0.0
00:10 18.9 82.0 1013.6 0.0 WSW 0.0 0.0
00:15 18.9 82.0 1013.6 0.0 WSW 0.0 0.0
00:20 18.9 82.0 1013.6 0.0 WSW 0.0 0.0
00:25 18.8 82.0 1013.6 0.0 WSW 0.0 0.0
00:30 18.8 82.0 1013.5 0.0 WSW 0.0 0.0
00:35 18.8 82.0 1013.5 0.0 WSW 0.0 0.0
00:40 18.8 82.0 1013.5 0.0 WSW 0.0 0.0
00:45 18.8 82.0 1013.4 0.0 WSW 0.0 0.0
00:50 18.8 82.0 1013.5 0.0 WSW 0.0 0.0
00:55 18.7 82.0 1013.4 0.0 WSW 0.0 0.0
01:00 18.5 82.0 1013.4 0.0 WSW 0.0 0.0
01:05 18.5 82.0 1013.4 0.0 WSW 0.0 0.0
01:10 18.6 82.0 1013.4 0.0 WSW 0.0 0.0
01:15 18.7 82.0 1013.4 0.0 WSW 0.0 0.0
01:20 18.7 82.0 1013.4 0.0 WSW 0.0 0.0
01:25 18.6 82.0 1013.4 0.0 WSW 0.0 0.0
01:30 18.5 82.0 1013.4 0.0 WSW 0.0 0.0
01:35 18.6 82.0 1013.3 0.0 WSW 0.0 0.0
01:40 18.6 82.0 1013.3 0.0 WSW 0.0 0.0
01:45 18.4 82.0 1013.2 0.0 WSW 0.0 0.0
01:50 18.4 82.0 1013.2 0.0 WSW 0.0 0.0
01:55 18.3 82.0 1013.3 0.0 WSW 0.0 0.0
02:00 18.3 82.0 1013.3 0.0 WSW 0.0 0.0
02:05 18.2 82.0 1013.3 0.0 WSW 0.0 0.0
02:10 18.1 82.0 1013.3 0.0 WSW 0.0 0.0
02:15 18.2 82.0 1013.2 0.0 WSW 0.0 0.0
02:20 18.2 82.0 1013.3 0.0 WSW 0.0 0.0
02:25 17.9 82.0 1013.2 0.0 WSW 0.0 0.0
02:30 17.9 83.0 1013.1 0.0 WSW 0.0 0.0
02:35 17.9 82.0 1013.3 0.0 WSW 0.0 0.0
02:40 17.9 82.0 1013.3 0.0 WSW 0.0 0.0
02:45 17.9 83.0 1013.2 0.0 WSW 0.0 0.0
02:50 17.8 82.0 1013.2 0.0 WSW 0.0 0.0
02:55 17.9 82.0 1013.3 0.0 WSW 0.0 0.0
03:00 17.8 82.0 1013.2 0.0 WSW 0.0 0.0
03:05 17.8 82.0 1013.2 0.0 WSW 0.0 0.0
03:10 17.7 82.0 1013.2 0.0 WSW 0.0 0.0
03:15 17.7 82.0 1013.3 0.0 WSW 0.0 0.0
03:20 17.6 81.0 1013.3 0.0 WSW 0.0 0.0
03:25 17.7 81.0 1013.2 0.0 WSW 0.0 0.0
03:30 17.7 80.0 1013.3 0.0 WSW 0.0 0.0
03:35 17.9 79.0 1013.3 0.0 WSW 0.0 0.0
03:40 17.9 79.0 1013.3 0.0 WSW 0.0 0.0
03:45 17.8 78.0 1013.2 0.0 WSW 0.0 0.0
03:50 17.8 78.0 1013.3 0.0 WSW 0.0 0.0
03:55 17.8 77.0 1013.4 0.0 WSW 0.0 0.0
04:00 18.0 77.0 1013.2 0.0 WSW 0.0 0.0
04:05 17.8 76.0 1013.2 0.0 WSW 0.0 0.0
04:10 17.9 76.0 1013.3 0.0 WSW 0.0 0.0
04:15 17.8 76.0 1013.2 0.0 WSW 0.0 0.0
04:20 17.6 76.0 1013.2 0.0 WSW 0.0 0.0
04:25 17.6 75.0 1013.2 0.0 WSW 0.0 0.0
04:30 17.6 75.0 1013.1 0.0 WSW 0.0 0.0
04:35 17.6 75.0 1013.1 0.0 WSW 0.0 0.0
04:40 17.5 75.0 1013.1 0.0 WSW 0.0 0.0
04:45 17.5 74.0 1013.1 0.0 WSW 0.0 0.0
04:50 17.6 74.0 1013.1 0.0 WSW 0.0 0.0
04:55 17.7 73.0 1013.1 0.0 WSW 0.0 0.0
05:00 17.8 73.0 1013.2 0.0 WSW 0.0 0.0
05:05 17.9 72.0 1013.2 0.0 WSW 0.0 0.0
05:10 18.0 72.0 1013.2 0.0 WSW 0.0 0.0
05:15 18.0 72.0 1013.3 0.0 WSW 0.0 0.0
05:20 17.8 73.0 1013.3 0.0 WSW 0.0 0.0
05:25 17.8 73.0 1013.4 0.0 WSW 0.0 0.0
05:30 17.7 73.0 1013.3 0.0 WSW 0.0 0.0
05:35 17.7 73.0 1013.4 0.0 WSW 0.0 0.0
05:40 17.8 73.0 1013.4 0.0 WSW 0.0 0.0
05:45 17.8 74.0 1013.4 0.0 WSW 0.0 0.0
05:50 17.9 73.0 1013.5 0.0 WSW 0.0 0.0
05:55 18.1 73.0 1013.6 0.0 W 0.0 0.0
06:00 18.2 72.0 1013.6 0.0 W 0.0 0.0
06:05 18.5 72.0 1013.6 0.0 W 0.0 0.0
06:10 18.8 72.0 1013.6 0.0 W 0.0 0.0
06:15 19.1 71.0 1013.7 0.0 W 0.0 0.0
06:20 19.6 69.0 1013.8 0.0 W 0.0 0.0
06:25 19.9 69.0 1013.8 0.0 W 0.0 0.0
06:30 20.6 66.0 1013.9 0.0 W 0.0 0.0
06:35 21.3 66.0 1013.9 0.0 W 0.0 0.0
06:40 21.8 62.0 1014.0 0.0 W 0.0 0.0
06:45 22.2 61.0 1014.2 0.0 ESE 0.0 0.0
06:50 22.3 59.0 1014.1 0.0 E 0.0 0.0
06:55 22.4 59.0 1014.2 0.0 E 0.0 0.0
07:00 22.5 59.0 1014.2 0.0 ESE 0.0 0.0
07:05 22.5 58.0 1014.3 0.0 E 0.0 0.0
07:10 22.6 59.0 1014.2 0.0 E 0.0 0.0
07:15 22.8 58.0 1014.2 0.0 E 0.0 0.0
07:20 22.9 57.0 1014.2 0.0 E 0.0 0.0
07:25 23.1 56.0 1014.4 0.0 NE 0.0 0.0
07:30 23.3 55.0 1014.2 0.0 NE 0.0 0.0
07:35 23.4 56.0 1014.4 0.0 ENE 0.0 0.0
07:40 23.4 56.0 1014.3 0.0 ENE 0.0 0.0
07:45 23.4 55.0 1014.4 0.0 E 0.0 0.0
07:50 23.5 54.0 1014.3 0.0 SE 0.0 0.0
07:55 23.6 52.0 1014.2 0.0 SE 0.0 0.0
08:00 23.7 52.0 1014.4 0.0 E 0.0 0.0
08:05 23.8 54.0 1014.2 0.0 NNE 0.0 0.0
08:10 23.8 55.0 1014.5 0.0 E 0.0 0.0
08:15 23.9 54.0 1014.4 0.0 NE 0.0 0.0
08:20 24.2 54.0 1014.4 0.0 E 0.0 0.0
08:25 24.2 53.0 1014.5 0.0 NE 0.0 0.0
08:30 24.2 53.0 1014.4 0.0 SE 0.0 0.0
08:35 24.4 51.0 1014.5 0.0 E 0.0 0.0
08:40 24.5 51.0 1014.6 0.0 E 0.0 0.0
08:45 24.7 52.0 1014.7 0.0 SE 0.0 0.0
08:50 24.8 50.0 1014.7 0.0 NE 0.0 0.0
08:55 24.8 50.0 1014.9 0.0 NE 0.0 0.0
09:00 24.9 51.0 1014.8 0.0 ENE 0.0 0.0
09:05 25.1 50.0 1014.8 0.0 E 0.0 0.0
Máxima 25.1 83.0 1014.9 0.0 E 0.0 0.0
Mínima 17.5 50.0 1013.1
Total 0.0